Погода в Шёвде

Швеция     58°23′32″N   13°51′08″E
темп.,
°C
ветер,
м/с
пор.,
м/с
влажн.,
%
обл.,
%
осадки,
мм/ч
давл.,
гПа
погр.,
м
17 апреля, сб
сб1723:00+6всв31062100 0.0 1030349
02:00+3ссв278044 0.0 1030172
05:00+2ссв2882100 0.0 1030207
08:00+4св386831 0.0 1030308
11:00+11всв47445 0.0 1029894
14:00+14всв463669 0.0 10291257
17:00+13всв464394 0.0 10281281
20:00+10св3956100 0.0 1028305
18 апреля, вс
вс1823:00+7всв31163100 0.0 1029481
02:00+5св31173100 0.0 1029424
05:00+4св297675 0.0 1029331
08:00+6всв38665 0.0 1029362
11:00+11в465150 0.0 1028738
14:00+14в454736 0.0 10281207
17:00+15в454760 0.0 10271463
20:00+10вюв24685 0.0 102869
19 апреля, пн
пн1923:00+7вюв297421 0.0 1029231
02:00+4в26815 0.0 1029132
05:00+2всв23825 0.0 102852
08:00+5в36675 0.0 1028278
11:00+11в35525 0.0 1027733
14:00+14вюв45425 0.0 10261322
17:00+14в45404 0.0 10251475
20:00+10вюв38560 0.0 1024235
20 апреля, вт
вт2023:00+6юв28730 0.0 1025159
02:00+4вюв21800 0.0 102415
05:00+3вюв11830 0.0 102311
08:00+6вюв12660 0.0 1022192
11:00+11юв22472 0.0 10201006
14:00+14ююв12375 0.0 10181745
17:00+14сз123710 0.0 10151879
20:00+9с11635 0.0 101410
21 апреля, ср
ср2123:00+6юз24745 0.0 101391
02:00+5юз312845 0.0 1010369
05:00+5юз51390100 0.0 1007755
08:00+6юз612640 0.0 1005843
11:00+9з7124447 0.0 10031942
14:00+5зсз71482100 1.1 10041555
17:00+4сз5991100 2.3 1004825
20:00+3з3886100 3.5 1003473